Theta_e
324 323 323 323 324 325 326 326 327 327 328 328 328 328 328 328 327 327 327 327 327 327 327 326 324 323 322 321 320 319 318 317 314 313 310 306 302 298 294 293 293 292 292 292 291 290 289 289 289 288 288 288 288 288 287 287 287 287 286 287 288 289 288 289 291 290 289 289 289 289 288 288 287 287 287 286 286 286 285 285 285 285 284 284 284
320 320 321 321 323 324 324 325 326 326 327 327 327 327 327 327 327 327 326 326 327 327 327 326 323 322 322 321 320 319 318 316 314 312 309 304 299 295 293 293 292 292 292 291 290 289 289 289 289 288 288 288 288 288 287 287 287 287 286 286 287 288 288 287 288 289 289 288 288 288 288 287 287 287 286 286 286 285 284 285 285 284 284 283 284
318 318 319 320 321 323 324 324 325 326 326 326 327 327 327 327 327 327 326 326 326 326 326 325 323 322 321 320 319 318 316 315 313 312 309 302 296 294 293 292 292 292 291 290 290 289 288 288 288 288 288 287 288 287 287 287 286 286 286 286 286 287 286 286 286 287 288 288 288 288 287 287 286 286 286 286 285 284 284 284 284 284 283 283 283
316 316 317 318 320 321 322 323 324 324 325 325 326 326 326 326 326 326 326 325 326 325 324 323 322 321 321 320 319 317 316 314 312 311 309 302 295 293 292 292 291 291 291 290 289 288 288 288 288 288 288 287 287 287 287 287 286 286 286 286 286 286 285 285 286 286 287 287 287 287 287 286 286 286 286 285 284 284 284 284 283 283 282 283 283
314 314 314 315 317 319 320 321 322 323 324 324 324 325 325 325 325 325 325 324 325 325 324 322 320 319 319 320 318 317 316 314 311 310 307 300 294 292 292 291 291 291 290 289 289 288 288 288 288 288 287 287 287 287 287 286 286 286 286 285 285 285 284 285 286 286 286 287 287 286 286 286 286 285 285 284 284 284 284 283 283 282 282 282 282
312 312 312 312 314 315 317 319 320 321 322 323 323 324 324 324 324 324 324 323 323 323 323 322 320 318 319 319 318 317 316 313 310 308 305 298 293 292 291 291 290 290 289 289 288 288 288 288 288 287 287 288 287 287 286 286 286 286 285 285 285 284 285 285 286 286 286 286 286 286 286 286 285 285 285 284 283 283 283 282 282 282 282 282 282
309 309 310 310 310 311 313 316 318 319 320 321 322 322 322 322 322 322 322 322 321 320 320 321 319 317 318 318 318 318 315 310 308 307 302 296 292 291 290 290 290 289 289 288 288 288 288 288 288 287 287 287 287 287 286 286 286 286 285 285 284 284 285 286 286 286 286 286 286 286 285 285 285 285 284 283 283 283 282 281 281 281 281 281 281
307 307 308 308 308 309 309 311 314 317 318 319 319 320 320 320 320 320 320 320 319 319 320 320 318 316 316 316 316 318 313 308 306 305 300 294 291 290 290 290 289 289 288 288 288 287 287 287 287 287 287 287 287 287 286 286 286 285 285 285 284 284 285 285 285 285 285 285 285 285 285 284 284 284 283 283 283 282 281 281 281 281 281 281 281
306 307 308 308 309 309 309 310 311 313 315 317 317 317 318 318 318 318 318 317 317 317 317 318 318 316 316 315 315 314 310 306 305 303 297 292 291 290 290 289 289 288 288 287 287 287 287 287 287 287 287 287 287 286 286 286 285 285 285 285 284 284 284 284 284 285 285 285 285 284 284 284 284 283 283 282 282 282 281 280 281 281 281 280 280
306 307 308 309 310 310 311 311 311 312 314 315 316 316 316 316 316 316 315 314 314 312 311 312 315 316 316 316 313 310 307 305 303 299 295 292 290 290 289 289 288 288 288 287 287 287 287 287 287 287 286 286 286 286 286 286 285 285 285 285 284 284 284 283 283 284 284 284 284 284 283 283 283 283 282 282 282 281 280 280 280 280 280 280 279
307 308 309 309 310 310 311 311 311 312 313 313 314 315 315 314 314 314 313 311 311 310 308 309 313 315 316 316 312 307 304 303 300 296 293 291 290 290 289 288 288 288 288 287 287 287 287 287 286 286 286 286 286 286 285 285 285 284 284 284 284 284 283 282 282 282 283 283 283 283 283 283 283 282 282 282 281 280 280 280 280 280 280 279 279
307 308 309 309 309 309 309 309 310 311 311 312 312 312 312 312 312 311 310 310 309 308 307 308 312 314 313 312 309 305 303 301 297 294 292 290 290 290 289 288 288 288 287 287 287 287 287 286 286 286 286 286 286 285 285 285 285 285 284 284 284 283 282 282 281 281 282 282 282 282 282 282 282 282 282 281 280 280 280 280 280 279 279 278 278
307 308 309 309 309 308 308 308 309 309 310 310 310 310 310 310 310 309 309 309 309 309 308 308 311 312 309 307 305 303 301 299 295 292 291 290 289 289 289 288 288 288 287 287 287 287 287 286 286 286 286 286 285 285 285 284 285 285 284 284 284 283 282 282 281 281 281 281 281 281 281 282 282 281 281 280 279 279 279 279 279 278 278 278 278
308 308 308 309 309 308 307 307 308 308 308 308 308 308 308 308 307 307 307 307 306 307 308 308 309 309 306 303 301 300 299 296 293 291 290 289 289 288 288 288 288 287 287 287 287 287 287 286 286 286 286 285 285 285 284 284 284 284 284 284 283 282 282 282 281 281 280 280 281 281 281 281 281 281 280 279 279 279 279 279 278 277 277 277 277
307 307 307 308 308 308 307 306 307 306 307 306 305 305 306 306 306 305 305 305 306 307 308 308 308 307 304 300 298 298 296 294 292 290 290 289 288 288 288 288 287 287 287 287 287 286 286 286 286 286 286 285 285 284 284 284 284 284 283 283 282 282 282 282 281 281 280 280 280 281 281 280 280 280 279 279 279 279 278 277 277 277 277 277 276
306 306 306 307 307 307 306 306 305 305 305 304 303 303 303 304 305 304 304 304 305 306 306 307 307 306 301 297 295 295 294 292 291 290 289 288 287 287 287 287 287 287 287 286 286 286 286 286 286 286 285 285 285 284 284 284 284 283 283 283 282 282 282 282 281 281 280 280 280 280 280 280 279 279 279 279 279 278 277 276 277 276 276 276 276
304 305 305 306 306 306 306 305 304 304 303 303 302 302 302 303 303 303 303 303 304 304 304 304 303 302 298 294 293 293 292 291 290 289 288 287 287 287 286 286 286 286 286 286 286 286 285 286 286 285 285 285 284 284 284 284 283 283 283 282 282 282 282 281 281 280 279 279 279 279 279 279 279 278 278 278 278 277 276 276 276 276 275 275 275
303 303 303 304 305 305 305 305 304 303 303 303 303 302 303 303 303 303 303 304 304 303 302 301 299 297 295 293 292 292 291 290 289 288 288 287 286 286 286 286 286 286 286 286 285 285 285 285 285 285 285 285 284 284 284 284 283 283 283 282 282 282 282 281 280 280 279 279 279 279 279 279 278 278 278 278 277 276 276 276 276 275 275 275 275
302 302 303 303 303 304 304 304 304 304 304 304 303 302 302 303 303 302 303 303 303 302 300 298 296 293 292 291 291 291 291 290 288 288 287 286 286 286 286 286 286 286 286 285 285 285 285 285 285 285 285 284 284 284 284 283 283 283 283 282 281 281 281 281 280 279 279 279 279 279 279 279 278 278 278 277 276 275 275 275 275 274 274 274 274
300 301 302 302 303 303 303 304 303 304 304 304 303 302 302 302 301 301 300 300 299 298 297 295 293 291 290 290 289 289 289 289 288 287 286 286 285 286 286 286 286 286 286 285 285 285 285 285 285 285 284 284 284 284 284 283 283 283 282 282 282 281 281 281 280 279 279 279 279 279 279 279 278 278 277 276 275 275 275 275 275 274 274 274 274
300 300 301 301 302 302 302 303 303 303 303 303 302 302 301 301 301 300 299 297 295 294 292 291 290 289 288 288 288 288 288 288 287 286 286 285 285 286 286 286 287 286 286 285 285 285 285 285 286 285 285 284 284 284 283 283 282 282 282 282 281 281 281 280 280 279 279 279 279 278 278 278 277 276 275 275 275 275 275 275 274 274 273 273 273
299 299 300 300 300 301 301 301 301 301 301 300 300 300 299 298 298 297 296 294 292 291 289 288 288 287 287 287 287 288 288 288 287 286 286 286 286 286 286 286 286 286 286 285 285 285 286 286 287 286 285 285 284 284 283 282 282 282 282 281 281 280 280 280 279 279 278 278 278 277 277 276 276 275 275 274 274 274 274 274 273 273 273 273 272
298 298 299 299 299 299 300 300 300 300 299 299 299 298 297 296 295 294 293 291 289 288 287 287 286 286 286 286 287 287 287 287 287 286 286 285 285 285 285 285 286 286 286 285 286 286 287 287 287 286 285 285 284 283 282 282 282 282 281 281 280 280 280 279 279 278 277 277 277 277 276 276 275 275 274 274 274 274 274 273 273 273 273 273 273
297 297 297 297 298 298 298 298 298 298 298 297 297 296 295 294 292 291 291 290 288 287 286 286 285 285 286 286 286 287 287 287 287 287 286 285 285 285 285 284 285 285 285 285 286 286 287 288 288 287 285 284 283 282 282 282 281 281 281 280 280 280 279 278 278 277 277 277 277 276 275 275 275 275 274 274 273 273 273 273 273 273 273 273 274
296 296 296 296 296 296 296 296 296 296 296 296 295 295 294 292 290 289 289 288 287 286 285 285 285 285 285 285 286 286 286 286 286 286 286 285 284 284 284 284 284 284 284 284 285 286 286 287 287 286 285 283 282 281 281 281 280 280 280 280 279 279 278 278 277 277 276 276 276 275 275 275 275 274 273 273 273 273 273 273 273 273 273 273 274
295 295 295 295 294 294 294 293 293 293 293 293 293 293 293 291 289 288 287 286 286 285 285 284 284 284 284 284 285 285 285 285 286 286 286 285 284 283 283 283 283 283 284 284 284 285 285 285 285 284 283 282 281 280 280 280 280 280 280 279 279 278 278 277 277 277 277 276 275 275 275 274 274 274 273 273 273 273 273 273 273 273 273 273 273
295 294 294 293 293 293 292 292 291 291 291 291 291 291 291 290 289 287 287 285 285 285 284 284 284 284 284 284 284 284 284 285 285 285 285 285 284 283 283 283 283 283 283 283 283 283 283 283 283 282 282 280 279 279 279 279 279 279 279 279 278 278 277 277 277 276 276 276 276 275 275 274 274 274 273 273 272 273 273 273 273 273 273 272 272
294 293 292 292 291 291 290 290 290 289 289 289 288 288 289 289 288 288 288 287 286 285 285 284 284 284 284 284 284 284 284 284 285 285 285 285 284 284 283 283 283 282 282 282 282 282 282 281 281 281 280 279 278 277 277 277 278 279 279 278 277 277 277 277 276 276 276 276 276 275 275 274 274 273 272 272 272 273 273 273 273 273 272 272 272
293 292 291 291 290 289 289 289 288 287 288 288 287 287 288 288 288 288 288 288 287 286 285 285 285 284 284 284 284 284 284 284 285 285 285 284 284 284 283 283 282 282 282 282 281 281 281 280 280 280 278 277 276 275 275 276 277 277 277 277 277 276 276 276 276 276 275 275 275 275 275 274 273 272 271 271 272 272 273 273 273 272 272 272 272
292 291 290 290 289 288 288 287 287 286 286 286 286 286 286 287 286 286 286 287 286 286 286 285 285 284 284 284 284 284 284 284 285 284 284 284 284 284 283 283 282 282 282 282 281 281 280 280 279 279 278 276 275 274 274 275 276 277 276 276 276 276 275 275 275 275 275 275 275 275 274 273 272 271 271 271 271 272 272 272 272 272 272 272 272
291 290 289 289 289 288 288 287 287 286 286 286 285 285 285 285 286 286 285 285 286 285 285 285 285 284 284 284 284 284 284 284 284 283 283 283 283 283 283 283 283 282 282 282 281 280 280 279 278 278 277 276 275 275 275 275 276 276 276 276 275 275 275 275 275 275 274 274 274 274 273 272 271 271 270 270 271 271 271 272 272 272 272 272 272
290 289 289 289 288 288 287 287 287 286 285 285 285 284 284 284 285 285 285 285 285 285 285 284 284 284 284 284 283 283 283 283 283 283 283 282 282 282 282 282 282 282 282 281 281 280 279 278 277 277 277 276 276 276 276 276 276 276 276 276 275 275 275 274 274 274 274 274 274 273 272 271 270 270 270 269 270 270 271 272 272 271 271 271 271
289 289 288 288 287 287 286 286 286 285 285 284 284 283 283 283 284 285 285 284 284 284 283 283 283 283 283 283 283 283 283 282 282 282 282 282 282 282 282 282 282 281 281 281 280 280 279 278 278 278 277 277 277 276 276 277 277 276 276 276 275 275 274 274 274 274 274 273 273 273 272 271 270 270 269 269 269 270 270 271 271 271 271 271 271
289 289 288 288 287 287 286 286 285 285 284 284 283 283 282 283 283 283 284 284 284 283 283 283 283 283 282 282 282 282 282 282 282 282 281 281 281 281 281 281 281 281 281 280 280 279 279 278 278 278 277 277 277 277 277 277 277 276 275 275 274 274 274 274 274 273 273 273 272 272 272 271 270 269 269 269 269 269 270 270 271 271 271 270 270
289 288 288 288 288 287 287 286 286 285 284 284 283 283 282 282 282 282 282 283 283 283 283 283 283 282 282 282 282 281 281 281 281 281 280 280 280 280 280 281 281 281 281 280 279 279 279 279 278 278 277 277 277 276 277 277 276 275 275 275 274 273 273 273 273 273 273 272 272 272 271 271 270 269 268 268 268 268 269 270 270 270 270 270 270
288 287 287 287 286 286 285 285 284 284 283 283 282 282 281 281 281 281 281 281 282 282 282 282 282 282 282 282 281 281 280 280 280 280 280 280 280 280 280 281 280 280 281 280 280 279 279 278 278 277 277 277 277 276 276 277 276 275 275 275 274 273 273 273 273 273 272 272 272 271 271 271 270 269 269 268 268 268 268 269 269 270 269 269 269
286 285 285 284 284 283 283 283 282 282 282 281 281 281 280 280 280 280 280 280 281 281 281 281 281 281 281 281 281 281 280 280 280 279 279 280 280 280 280 281 280 280 280 280 280 279 278 278 278 277 277 277 276 276 276 276 275 275 275 274 273 273 273 273 273 272 272 272 271 271 271 271 270 269 269 268 268 268 268 268 269 269 269 269 268
285 284 283 283 283 282 281 281 281 281 280 280 280 279 279 279 279 279 279 280 280 280 280 280 281 281 280 280 280 280 280 280 280 279 280 281 281 281 281 281 280 280 280 280 280 279 279 279 278 278 278 277 276 275 275 275 275 275 275 274 273 273 272 272 272 272 272 271 271 271 271 271 270 269 269 268 267 267 267 268 268 268 268 268 268
282 282 282 282 281 281 280 280 280 280 279 278 278 278 278 278 278 278 278 279 279 279 279 279 280 280 280 280 280 280 279 279 280 280 280 281 281 281 281 281 281 280 280 280 280 280 279 279 278 278 278 277 276 276 275 275 275 275 274 274 273 272 272 272 271 271 271 271 271 271 270 270 270 269 269 269 268 267 267 267 267 267 267 267 267
280 280 280 280 280 280 279 279 279 278 278 277 277 277 277 277 277 277 277 278 278 278 278 278 279 279 279 279 279 279 279 279 279 280 280 281 281 281 281 281 281 280 280 280 279 279 279 278 278 277 276 276 275 275 275 274 274 274 273 273 272 272 272 272 271 271 271 271 271 270 270 270 270 269 269 269 268 267 266 266 266 266 266 266 266
278 278 278 278 279 279 278 278 277 277 276 276 276 275 275 275 276 276 276 276 276 277 277 277 277 277 278 278 278 278 278 278 279 279 279 280 280 280 281 281 280 280 280 280 279 278 278 277 277 276 275 275 274 274 274 273 273 273 273 272 272 272 272 271 271 271 271 270 270 270 270 270 270 269 269 269 268 267 266 266 266 266 266 266 266
278 278 277 277 277 277 276 275 275 275 275 275 275 274 274 274 274 274 274 274 275 275 275 275 276 276 276 276 277 277 277 277 277 278 278 279 279 279 279 280 280 279 279 279 279 278 277 277 276 276 275 275 274 274 273 273 273 273 272 272 272 272 272 271 271 271 270 270 270 270 269 269 269 269 269 269 268 268 267 267 266 265 265 265 266
277 277 277 276 276 276 276 275 275 275 274 274 273 273 273 273 273 273 273 273 273 273 273 274 274 274 275 275 275 275 276 276 276 276 276 277 277 278 278 278 279 279 278 278 278 278 277 277 276 276 276 275 275 274 274 274 273 273 273 272 272 272 272 272 271 271 270 270 270 269 269 269 269 269 269 269 268 268 268 267 266 265 265 265 265
277 277 277 276 276 276 276 276 275 275 274 274 274 274 273 273 272 272 272 272 272 272 272 272 273 273 273 273 273 274 274 274 275 275 275 275 275 276 276 276 277 277 277 277 277 277 276 276 276 275 275 275 274 274 273 273 272 273 273 273 272 272 272 272 271 271 271 270 269 269 269 269 269 269 269 268 268 268 268 268 267 266 265 264 264
277 277 277 276 276 276 276 275 275 275 275 274 274 273 272 272 272 271 271 271 271 271 271 271 272 272 272 272 272 272 273 273 273 273 274 274 274 274 274 275 275 275 275 276 276 275 275 275 275 275 275 274 273 273 273 272 271 272 272 273 273 273 273 273 272 272 271 270 269 269 269 269 269 269 269 268 268 267 267 267 267 266 265 265 265
277 276 276 276 276 275 275 275 274 274 274 273 272 272 271 271 271 271 270 270 270 270 270 270 270 271 271 271 271 271 271 272 272 272 272 272 273 273 273 273 273 273 273 274 274 274 274 274 274 274 274 273 273 273 272 271 271 271 271 272 272 273 273 272 272 271 270 270 269 269 269 268 268 269 268 268 267 267 267 266 266 266 266 265 265
275 275 275 274 274 274 273 273 273 272 272 271 271 270 270 270 270 270 270 270 270 270 269 269 269 270 270 270 270 270 270 270 271 271 271 271 271 271 271 271 272 272 272 272 272 272 272 272 272 272 272 272 272 272 271 271 270 270 271 272 272 272 272 271 270 270 270 269 269 268 268 267 267 267 267 267 267 266 266 266 266 265 265 265 265
273 273 272 272 272 271 271 270 270 270 270 269 269 269 269 269 269 269 268 268 268 268 268 269 269 269 269 269 269 269 269 270 270 270 270 270 270 270 270 270 270 270 270 270 270 271 271 271 271 271 271 271 271 271 270 270 270 270 271 271 271 271 271 270 270 269 269 268 268 267 267 267 266 266 266 266 266 266 265 265 265 265 265 265 264
271 271 270 270 270 269 269 268 268 268 268 268 268 267 267 267 267 267 267 267 267 267 267 268 268 268 268 268 268 268 268 268 268 268 268 268 268 268 269 269 269 269 269 269 269 269 269 269 270 270 270 270 270 270 270 269 269 270 271 271 271 271 270 270 269 269 268 268 267 267 266 266 265 265 265 265 265 265 265 264 264 264 264 264 264
270 269 269 269 268 268 267 267 267 266 266 266 266 266 266 266 266 266 266 266 266 266 266 266 267 267 267 267 267 267 267 267 267 267 267 267 268 268 268 268 268 268 268 268 268 268 268 268 268 269 268 268 268 268 268 269 269 270 271 271 271 270 270 269 269 268 267 267 267 266 266 265 265 265 264 264 265 265 264 264 264 264 264 263 263
268 267 267 267 267 267 266 266 265 265 265 265 264 265 265 265 265 265 265 265 265 265 265 265 266 266 266 266 266 266 266 266 266 266 266 266 267 267 267 267 267 267 267 267 267 267 267 267 267 268 268 267 267 267 267 268 269 269 270 270 270 270 269 269 268 267 267 267 266 266 265 265 265 265 264 264 265 265 265 264 264 264 264 263 263
Wind_Speed
18 21 21 21 24 28 30 31 32 31 31 31 31 30 31 32 30 29 29 31 34 35 36 37 38 37 35 35 33 29 25 23 24 25 26 26 27 29 28 27 26 24 22 20 18 17 16 15 13 11 10 8 7 5 4 2 2 1 1 2 1 3 3 3 6 11 14 13 13 16 16 17 19 18 18 20 19 20 22 20 19 23 25 23 22
17 20 20 22 25 28 29 30 31 30 30 31 31 29 29 31 31 29 30 32 34 35 37 38 39 38 36 35 33 29 25 24 26 27 28 28 29 29 28 27 26 24 22 20 19 17 16 15 13 11 9 8 7 5 3 2 1 1 2 2 1 3 5 5 6 8 12 14 14 15 15 16 18 18 19 20 21 22 22 19 19 22 23 22 21
16 18 20 22 24 26 26 27 28 29 29 29 30 29 28 29 30 31 32 33 34 35 36 38 39 39 36 35 32 29 26 26 27 29 30 30 31 30 29 28 26 24 22 21 19 18 17 15 13 11 10 8 7 5 3 2 0 0 2 3 3 4 6 6 5 6 10 14 14 14 16 17 17 18 18 18 21 22 21 18 20 23 24 22 20
12 14 18 21 22 23 24 26 28 29 31 31 30 30 29 29 29 31 32 33 33 34 35 38 40 39 37 35 32 29 27 27 29 30 31 31 32 31 29 27 25 23 22 20 19 18 17 15 13 12 11 9 7 4 3 2 1 1 2 3 4 5 6 5 5 6 9 12 13 14 16 17 17 17 18 20 22 21 18 19 21 22 24 24 23
11 11 13 18 22 24 24 26 28 29 30 31 31 30 30 30 30 31 32 33 33 34 35 37 38 39 38 36 33 29 27 28 30 31 31 31 31 30 29 27 24 23 21 20 19 18 17 15 13 12 11 8 7 5 3 2 2 1 2 3 4 5 5 5 5 6 8 12 14 15 14 15 16 16 17 22 25 22 19 19 20 21 23 25 25
11 11 11 14 18 22 24 25 26 27 28 28 29 29 30 30 30 31 32 33 34 35 36 37 38 39 37 35 32 28 26 28 31 32 32 32 31 29 28 26 24 23 21 20 19 18 16 15 13 12 11 8 6 5 4 3 2 2 3 4 4 4 4 4 5 7 8 11 13 14 13 14 15 15 16 20 24 23 24 24 21 20 23 26 26
11 12 12 13 14 17 21 23 24 24 25 26 26 27 28 29 30 30 31 32 34 36 37 37 39 38 36 34 31 27 26 30 32 32 33 32 31 30 28 27 25 23 21 20 20 18 16 15 14 12 10 8 7 6 4 3 2 3 4 4 3 3 4 4 5 7 8 10 11 11 12 13 13 14 16 18 19 19 23 27 27 26 25 25 26
12 13 14 15 15 16 17 20 21 22 22 23 24 25 26 27 28 29 30 31 32 35 36 37 38 37 35 33 30 26 28 32 33 33 34 33 32 31 29 27 25 24 22 21 20 19 17 15 14 12 10 8 7 6 4 3 3 3 5 4 3 3 3 4 5 6 6 8 9 10 11 12 12 13 16 18 19 19 20 23 25 27 28 27 27
12 14 15 16 16 15 15 17 19 21 21 21 21 22 23 24 26 27 28 29 31 34 36 37 39 37 33 30 28 28 30 34 35 35 35 34 32 31 29 27 26 25 24 23 21 19 17 16 14 12 10 8 7 5 4 4 4 5 6 5 3 3 4 5 5 4 5 7 8 9 10 11 11 13 15 16 17 19 21 21 20 22 26 28 27
13 14 15 15 15 15 16 17 19 20 21 21 22 22 23 24 25 26 28 29 31 33 34 36 38 37 34 30 28 30 33 35 36 36 35 34 33 31 29 28 26 26 25 24 22 20 18 16 14 12 10 8 7 6 5 5 5 6 6 6 5 4 5 5 4 3 4 6 7 8 10 10 11 12 13 14 15 16 19 20 20 22 23 25 25
14 15 15 15 16 16 17 18 19 20 21 22 23 24 24 25 26 27 28 29 30 31 32 34 36 35 32 30 30 33 35 35 35 35 34 34 33 31 30 29 27 26 25 24 23 21 19 16 14 12 11 9 8 7 6 6 5 6 6 5 5 4 5 5 3 3 4 5 6 7 8 10 11 11 12 13 14 15 17 17 18 20 20 19 22
15 16 16 15 16 16 16 17 18 19 20 21 23 23 24 24 25 26 27 28 30 31 31 33 33 32 30 29 31 35 36 35 35 35 34 33 32 31 30 29 28 27 26 24 22 21 19 17 15 13 11 9 9 8 7 6 6 5 5 4 3 4 4 4 4 4 4 5 7 8 8 10 11 11 11 12 13 15 16 16 15 16 17 17 18
16 16 17 16 16 16 16 16 17 18 19 20 21 22 22 23 24 26 27 28 30 30 31 32 32 31 30 30 32 35 36 36 36 35 34 33 32 31 30 29 28 27 26 24 22 20 19 18 16 14 12 10 9 8 7 7 6 4 4 3 3 4 4 4 4 4 4 6 7 8 9 9 10 11 11 11 13 15 16 15 14 14 16 17 18
18 18 18 17 16 16 16 16 17 18 18 19 20 21 22 23 24 25 27 28 30 31 32 32 31 30 30 31 34 36 37 37 36 35 34 33 32 31 30 29 29 27 26 24 22 21 19 17 15 14 12 12 10 9 8 7 5 4 3 4 4 5 5 5 5 5 5 7 9 10 9 9 10 11 11 11 12 14 15 16 15 16 17 18 20
20 19 18 18 17 17 17 17 18 18 18 19 20 20 21 22 23 25 27 28 30 31 31 30 29 29 30 32 34 36 37 37 36 35 34 33 33 32 31 30 29 27 25 24 22 21 19 17 15 14 13 12 11 10 9 7 6 6 6 6 6 6 6 6 6 7 8 8 9 10 10 10 11 12 12 12 12 13 14 15 16 17 18 18 19
20 19 19 18 18 17 17 18 18 19 19 19 20 20 21 22 23 24 26 27 28 29 29 29 29 29 31 33 35 36 37 37 36 35 34 34 34 33 31 30 29 27 26 24 22 21 20 18 16 15 14 13 11 10 9 8 7 8 8 7 7 7 7 7 8 10 10 10 9 10 10 11 12 13 13 12 13 14 14 14 14 14 14 15 15
21 20 19 19 19 18 18 18 18 19 19 20 20 21 21 22 23 25 26 26 27 27 26 27 28 30 32 34 35 36 37 37 36 36 35 35 35 34 32 31 29 27 26 25 24 23 21 19 17 16 14 13 12 10 9 9 9 9 8 7 8 8 7 7 8 9 9 9 10 11 12 13 13 13 12 11 11 11 12 12 12 11 12 13 12
20 20 19 19 19 19 18 18 18 19 20 20 21 21 21 22 23 24 25 25 25 25 25 26 27 30 32 34 35 35 36 36 36 36 36 37 36 35 33 31 29 27 26 26 25 24 22 19 18 17 15 13 12 11 10 10 10 10 9 8 9 9 8 7 9 9 8 9 10 11 12 13 13 12 12 11 9 8 9 10 11 10 11 11 11
18 18 18 18 19 19 18 19 19 19 20 20 21 21 21 22 22 22 22 22 23 23 24 25 27 30 32 33 33 34 35 36 37 37 38 38 37 35 33 31 30 29 29 28 27 25 22 20 19 18 16 14 12 12 11 11 11 10 9 9 10 10 8 8 9 9 9 10 11 12 13 13 13 13 12 11 9 7 7 9 10 10 11 11 12
17 17 17 18 18 19 19 19 20 20 20 20 20 20 20 20 20 21 21 21 22 22 24 26 28 30 32 32 31 32 34 36 38 38 38 38 36 34 33 32 31 31 31 30 28 26 24 22 21 19 17 15 14 13 13 13 12 11 10 11 12 10 8 9 10 10 11 11 12 13 14 13 13 13 12 10 8 7 6 7 9 10 11 12 12
16 17 17 18 18 18 19 20 20 21 20 20 19 19 20 20 20 21 21 21 22 23 24 26 28 29 30 30 30 30 32 35 37 38 38 37 36 34 34 33 33 32 31 30 29 28 25 24 22 19 17 16 16 16 15 14 13 12 12 13 12 11 10 10 10 9 11 12 12 13 13 12 11 10 9 9 8 7 7 8 9 10 11 13 13
14 15 17 17 17 18 18 19 19 19 20 19 19 19 19 19 20 21 21 22 23 24 25 26 27 27 27 28 28 28 29 32 35 37 37 37 36 36 35 33 33 32 32 31 30 28 26 23 21 19 18 17 18 18 16 14 14 14 14 13 13 12 11 10 9 9 11 11 11 12 12 11 11 10 9 9 8 8 8 9 10 11 12 14 14
12 13 15 16 16 17 17 17 18 19 19 19 19 19 19 19 20 20 21 22 23 23 24 25 26 26 26 28 29 29 29 31 33 36 38 37 37 36 35 34 33 32 31 31 30 28 26 23 21 19 19 20 20 19 17 15 16 16 15 15 14 12 10 9 9 10 10 10 11 12 12 11 11 11 10 9 8 9 10 10 10 12 13 15 15
11 12 13 14 15 15 15 16 17 18 18 18 18 19 19 19 20 21 22 23 24 25 26 27 28 28 28 30 31 32 31 31 32 35 37 37 37 36 35 34 33 31 30 30 28 27 25 23 21 19 20 22 21 18 17 17 17 17 16 16 14 12 10 10 10 10 11 11 12 12 12 12 12 11 11 10 10 12 11 9 10 12 13 13 13
10 11 12 12 12 12 13 14 14 15 16 17 18 19 20 20 20 21 23 24 26 27 27 28 29 30 30 31 32 32 31 30 30 33 35 36 37 36 35 34 33 31 30 29 28 26 25 23 21 20 22 23 20 18 18 19 18 18 17 16 14 12 12 11 11 12 12 12 12 12 13 13 12 11 12 12 12 11 10 9 10 11 11 11 12
10 10 10 10 10 11 12 12 13 14 15 16 17 19 20 21 21 21 23 25 26 26 26 27 28 28 29 29 30 30 30 29 30 31 33 34 35 35 35 34 33 31 30 29 28 27 25 24 22 22 22 22 21 21 22 22 21 19 18 16 15 14 14 13 13 13 13 12 13 13 14 13 12 12 11 11 10 9 9 10 11 10 9 11 13
10 10 10 9 10 10 11 12 13 14 14 16 17 18 20 21 22 23 25 26 25 24 25 26 27 27 27 27 27 28 30 31 31 32 33 34 34 35 35 35 34 32 32 32 30 27 25 23 21 22 22 21 21 22 24 23 22 21 20 18 17 17 16 15 15 14 14 14 14 14 13 13 13 12 9 8 9 9 9 10 10 10 9 10 12
8 9 9 9 9 10 10 11 11 13 14 16 16 17 20 22 23 24 25 26 26 25 26 28 29 29 29 28 28 28 30 33 36 38 38 36 36 36 36 36 36 36 35 33 30 26 23 21 21 21 21 21 22 23 25 25 23 22 21 20 19 18 17 16 16 15 15 14 14 13 13 12 11 9 8 8 9 9 8 8 9 9 10 10 11
7 8 8 7 8 9 9 9 9 10 13 14 15 15 18 20 22 23 24 24 25 25 25 27 29 30 29 29 30 31 33 36 41 42 39 36 35 35 36 37 38 37 35 32 29 25 23 23 24 23 23 23 23 24 26 26 25 23 22 21 20 19 18 17 17 16 15 15 13 12 11 10 9 8 8 9 9 9 8 8 8 9 9 9 10
8 7 7 6 6 7 7 8 8 8 9 12 13 13 15 17 20 21 21 22 23 24 24 24 25 26 26 27 30 32 34 36 37 37 37 36 34 32 33 35 35 33 31 28 27 27 27 28 28 28 27 26 26 26 27 27 26 25 24 22 21 20 19 19 18 17 16 14 13 12 11 11 10 9 8 9 9 8 8 8 8 8 8 9 10
8 7 6 5 5 6 5 6 8 8 8 9 11 12 13 15 17 19 20 20 22 24 24 24 24 24 25 26 27 28 31 32 32 32 33 35 35 33 31 30 30 30 28 26 27 30 30 28 28 29 29 29 29 30 29 28 28 26 25 23 23 22 21 20 19 18 16 15 13 12 11 11 10 9 9 9 9 8 8 8 8 8 8 9 10
8 7 6 4 4 5 5 5 5 6 7 8 9 10 10 11 13 16 19 20 21 22 24 25 25 25 25 25 25 26 27 30 31 31 29 30 33 34 32 29 28 27 25 24 27 31 30 27 27 30 31 31 32 31 30 30 29 28 26 25 24 24 23 22 20 18 16 15 13 12 12 11 10 10 9 9 8 8 8 7 7 8 8 8 9
9 8 6 5 5 4 3 3 3 4 5 6 7 8 8 7 7 10 12 15 18 21 22 24 25 26 26 26 26 26 26 27 29 30 29 28 29 31 31 30 27 24 23 25 28 30 29 29 29 30 31 32 33 32 32 32 31 29 28 27 25 24 23 22 21 18 16 15 14 13 12 11 10 9 9 9 8 8 8 7 7 8 8 8 8
8 8 7 6 5 4 2 1 1 2 4 5 6 8 8 8 8 7 7 8 10 13 17 20 22 25 26 27 27 27 27 26 25 26 27 27 26 27 29 29 25 23 25 30 31 30 29 30 31 31 31 32 33 32 34 34 32 30 29 27 25 23 22 22 20 19 17 16 14 13 12 11 10 9 9 8 8 8 8 8 8 8 7 7 7
6 6 6 5 4 3 2 1 1 2 4 5 6 7 8 9 9 9 8 7 8 9 10 13 15 18 21 23 25 26 26 25 24 23 23 24 24 23 24 26 26 25 28 32 33 32 32 32 32 31 31 32 33 34 35 35 33 31 30 28 26 25 24 22 20 19 18 17 15 14 12 11 9 9 9 8 8 8 8 8 8 8 8 7 7
6 5 5 4 3 2 1 0 1 2 4 5 6 7 7 8 8 8 8 9 9 10 9 10 11 13 14 17 20 22 23 24 24 23 23 23 23 23 25 29 30 30 31 33 34 34 34 33 31 30 31 32 34 35 35 35 34 32 30 29 27 26 26 24 22 20 19 18 16 15 13 11 10 9 9 8 8 8 8 8 8 8 8 7 7
5 5 4 3 2 1 0 1 2 3 4 5 6 6 7 7 8 8 7 7 8 9 9 10 11 12 13 15 17 18 20 21 22 22 22 22 23 26 30 31 31 30 31 32 33 32 33 33 32 32 33 34 35 35 34 34 33 32 30 29 28 27 26 25 23 22 20 18 17 16 14 13 11 10 9 8 8 7 8 8 8 8 8 8 8
4 3 2 1 0 0 1 2 3 3 4 4 5 6 6 6 6 6 6 7 7 8 9 10 11 12 13 14 15 16 16 16 16 17 18 20 23 27 30 30 30 30 31 32 33 34 36 36 35 34 35 35 35 35 35 34 33 32 31 30 29 28 26 24 23 22 21 19 18 17 15 14 13 11 10 9 9 8 8 8 8 8 7 7 8
3 3 1 1 1 1 2 3 3 4 4 4 4 5 5 5 5 5 6 7 8 9 9 10 12 13 12 12 13 13 13 14 15 16 18 20 24 27 28 28 29 31 32 33 34 36 37 37 35 35 35 35 35 36 36 36 35 34 32 31 30 28 27 26 25 23 22 21 19 18 16 15 14 13 11 11 10 9 8 8 8 8 7 7 7
4 3 3 2 1 2 2 3 4 4 4 5 5 5 6 6 6 6 6 7 8 9 10 11 12 13 12 12 13 13 14 15 17 18 19 21 23 26 28 29 30 31 32 33 33 34 35 34 33 33 33 33 33 34 35 35 34 33 32 32 31 29 28 27 26 24 23 21 20 18 17 16 15 14 13 12 10 10 9 9 8 7 7 7 8
6 5 5 5 4 4 4 4 4 4 5 5 6 6 6 7 7 7 8 9 9 10 11 13 14 14 14 14 15 15 17 18 19 20 21 22 23 26 28 30 31 32 32 33 32 32 32 33 33 32 32 32 32 33 34 34 34 33 33 32 31 30 29 28 27 25 24 22 21 19 18 17 16 15 14 12 11 10 10 9 8 7 7 7 7
7 7 7 7 7 7 6 6 6 7 7 7 7 7 7 8 8 9 9 10 11 12 13 14 15 15 14 14 15 15 18 20 21 22 23 24 25 26 28 30 31 32 32 33 32 32 31 32 33 34 34 33 33 34 35 35 36 35 34 34 33 32 30 29 28 26 24 23 21 20 18 17 16 15 14 13 12 12 11 10 9 7 7 7 7
9 9 9 9 9 9 9 9 9 10 10 9 9 9 10 10 11 12 11 12 12 13 14 15 16 15 15 15 15 15 18 20 22 23 24 25 26 27 29 30 31 32 32 33 33 32 32 33 33 34 35 34 33 33 36 37 38 37 37 35 34 33 31 30 29 27 25 24 22 20 19 18 17 16 15 14 13 12 11 10 9 8 7 7 7
10 10 10 11 11 11 11 11 12 12 12 12 12 13 13 13 13 13 12 13 13 13 14 15 16 16 16 16 15 16 18 20 21 23 24 25 26 27 28 29 30 31 32 33 33 33 33 34 35 35 35 33 31 31 34 37 38 38 37 37 35 34 33 32 30 28 27 25 23 21 20 18 17 16 16 15 14 13 12 11 9 8 7 7 7
11 11 11 12 12 13 13 13 13 14 14 15 15 15 14 13 13 13 12 13 13 13 14 15 16 16 17 17 16 17 19 20 21 22 23 24 25 27 27 27 28 30 32 33 33 33 34 36 36 36 35 34 32 31 34 37 38 38 38 37 36 35 33 32 30 28 26 25 24 22 20 19 18 18 16 15 14 13 12 11 10 9 8 7 7
11 11 11 12 12 13 14 14 15 15 15 15 15 16 15 14 13 13 14 14 14 14 15 16 16 17 17 17 17 18 19 20 21 23 24 25 26 26 27 26 27 28 30 31 33 34 35 36 37 36 36 36 34 33 34 36 39 39 38 37 36 33 30 29 28 26 25 24 24 22 21 20 19 18 17 16 15 14 13 12 11 10 9 8 8
10 10 11 12 12 13 14 14 14 15 15 15 15 15 15 15 14 14 15 15 16 16 17 18 17 17 17 18 18 19 20 21 22 23 24 25 26 27 27 27 27 27 28 30 31 34 35 35 36 36 36 36 35 34 34 36 39 40 39 37 34 32 29 28 27 25 24 24 24 22 21 20 19 18 17 16 15 14 14 13 12 11 10 8 8
10 11 11 12 12 12 13 13 14 14 14 14 14 14 15 15 16 16 16 16 17 17 17 17 17 18 18 19 19 20 20 21 22 23 24 25 25 25 26 26 26 27 27 28 30 32 33 34 34 35 35 35 35 35 35 36 38 39 38 36 34 32 30 28 27 26 25 25 24 22 21 20 19 18 18 16 15 15 14 13 12 12 10 9 9
10 11 11 12 12 12 12 13 13 13 13 14 14 15 15 16 16 15 15 16 17 17 17 18 18 19 19 20 20 20 21 22 23 24 24 24 24 24 24 24 25 25 26 26 28 30 31 32 33 33 34 34 35 35 35 36 37 37 36 35 34 32 31 29 27 26 26 25 24 23 22 22 20 19 18 17 16 15 14 13 12 11 11 10 10
10 11 11 11 12 12 12 13 13 13 14 14 14 14 14 15 15 15 15 16 17 17 18 18 19 19 20 20 21 21 22 22 23 23 24 24 24 23 23 23 23 24 25 25 26 27 29 30 31 31 32 33 33 34 35 35 36 36 35 34 33 31 30 29 27 26 26 25 25 24 23 23 22 21 19 18 16 15 14 13 12 11 11 11 11
10 11 11 11 12 12 12 12 13 12 12 13 13 13 14 15 15 16 17 17 18 18 19 19 19 19 20 20 20 21 22 23 23 23 24 24 23 23 23 23 23 24 25 26 26 26 27 28 29 30 30 31 32 33 34 35 35 35 34 32 31 31 30 29 27 26 26 26 26 25 24 24 23 22 20 19 17 16 14 13 12 12 11 11 11
Wind_Direction
212 213 212 214 215 215 214 213 213 214 214 213 212 213 212 211 214 215 212 208 208 211 211 210 207 203 201 202 204 206 208 212 212 206 203 203 197 191 187 185 186 184 183 181 180 179 179 180 178 175 171 168 167 162 150 133 108 76 34 40 353 296 295 268 256 279 301 313 314 319 326 328 333 338 338 340 345 346 349 354 354 352 351 349 348
216 219 219 220 220 219 218 216 215 213 212 212 212 212 212 212 215 214 210 210 212 212 212 210 206 202 201 202 203 206 210 212 210 204 201 200 196 191 188 187 186 185 183 181 180 180 180 181 179 174 174 173 169 163 150 139 108 46 349 359 313 272 278 274 265 274 296 312 319 321 326 328 332 336 338 340 342 345 350 353 351 348 350 350 348
217 220 221 221 221 220 219 217 215 213 213 214 213 214 215 216 217 216 213 214 215 214 213 210 205 201 201 203 203 204 207 209 207 202 200 199 195 191 188 188 187 185 184 182 180 181 181 181 179 175 176 174 170 165 153 154 134 352 318 323 305 283 283 283 280 276 293 309 318 322 325 329 332 334 336 336 339 345 350 349 346 346 350 352 349
216 221 222 223 222 221 222 221 220 220 220 220 220 220 220 219 219 218 216 217 216 214 212 209 203 199 200 202 202 203 206 207 204 201 200 199 195 191 188 188 187 186 185 183 181 182 182 181 179 177 179 175 167 167 164 174 227 282 303 311 305 295 296 300 300 293 294 302 310 318 323 327 330 333 334 335 340 347 349 344 343 347 351 353 351
212 218 219 222 224 224 225 224 223 223 223 224 224 224 222 220 220 218 217 218 216 213 211 207 201 198 199 201 201 202 206 206 202 199 198 197 194 192 189 187 186 185 186 185 183 184 183 181 180 179 180 175 168 174 183 192 219 262 288 291 291 294 306 319 315 301 291 294 303 315 323 325 328 333 336 338 341 345 345 343 345 348 349 349 350
210 214 216 219 222 224 225 225 225 225 226 226 225 224 222 220 218 218 218 218 215 211 208 206 202 199 200 201 202 204 207 205 200 197 195 195 193 191 189 187 186 185 185 186 185 185 184 182 182 182 181 175 172 182 192 201 226 260 265 269 281 299 323 326 310 299 293 294 301 312 322 326 328 333 337 341 343 343 342 342 344 348 348 346 345
217 219 220 221 224 224 224 225 226 228 227 227 227 226 224 221 219 219 219 218 215 209 202 202 202 200 200 201 202 206 206 201 198 196 194 193 192 191 189 186 185 185 185 186 186 186 185 184 184 184 181 179 182 189 198 210 229 255 263 270 284 311 334 319 298 295 294 297 305 312 319 325 329 331 334 340 344 345 347 345 340 341 344 343 340
233 230 229 230 232 233 230 226 226 228 229 229 229 227 225 223 221 220 219 218 216 210 205 203 200 198 200 201 201 206 205 199 196 194 193 192 191 190 189 187 185 184 185 187 187 186 185 185 186 186 183 184 191 196 203 218 228 241 258 270 283 309 318 292 285 294 296 301 310 315 320 324 329 332 336 345 348 347 349 344 334 331 335 336 336
241 236 235 235 235 235 233 228 225 227 229 230 230 229 227 224 222 221 219 217 214 208 204 201 198 197 200 203 204 206 202 197 195 194 192 191 191 191 190 188 186 185 185 186 187 186 186 187 187 186 186 188 195 200 206 219 225 229 242 257 273 288 279 269 278 292 299 308 314 320 324 325 331 337 341 347 347 338 337 337 329 326 328 328 332
238 235 237 236 233 231 228 225 222 222 224 226 228 228 226 223 221 220 217 214 210 205 198 195 195 196 199 203 206 204 199 196 195 195 194 192 191 191 190 188 188 187 187 187 186 186 188 189 187 185 188 192 197 205 212 220 228 233 238 247 259 261 256 262 274 286 301 311 315 319 321 318 326 336 336 337 336 331 332 334 329 328 330 329 329
232 233 236 237 235 232 228 224 220 218 218 218 219 220 221 219 218 217 215 211 208 203 198 194 194 196 199 202 204 201 197 195 194 194 195 194 193 192 190 188 188 189 190 189 187 188 189 188 187 187 190 195 201 209 215 220 231 240 241 247 259 259 255 259 267 278 296 301 303 309 310 308 316 327 328 329 330 329 329 329 326 329 333 331 326
226 228 232 237 237 234 231 227 222 220 218 217 216 216 216 216 215 214 212 210 207 203 198 195 194 197 200 201 201 198 195 194 194 194 194 195 195 194 192 190 190 191 192 191 190 190 189 188 189 191 193 198 205 210 215 221 230 241 249 259 271 268 265 266 271 280 283 285 291 294 294 299 308 318 324 327 325 323 323 322 324 327 326 322 314
221 222 226 231 235 233 231 228 225 223 221 219 218 216 214 214 213 211 209 208 206 203 199 196 195 198 200 199 198 196 194 193 194 194 194 195 196 195 193 193 192 192 192 192 192 192 191 190 191 192 195 201 207 211 216 224 233 244 263 284 293 291 284 274 272 275 266 264 271 275 281 293 302 308 315 320 319 319 318 318 321 321 317 314 306
217 219 220 224 229 231 229 227 225 225 222 220 219 218 215 213 210 208 206 203 200 198 197 197 198 200 200 199 196 194 194 195 194 194 195 195 195 195 195 194 194 193 193 193 193 193 194 193 193 194 197 202 207 210 214 221 232 246 260 271 279 288 290 288 289 284 267 257 259 266 276 286 293 299 305 309 312 314 313 313 316 314 309 304 301
213 215 217 220 223 226 227 225 223 223 222 219 216 214 213 212 208 205 204 201 198 196 196 199 202 202 201 199 195 194 195 195 195 195 195 194 194 195 195 195 194 193 194 194 194 195 196 196 196 198 201 204 206 209 212 216 221 229 236 244 252 258 265 270 268 258 251 246 251 264 276 280 286 292 297 304 306 302 301 302 305 308 307 303 305
212 212 214 216 221 224 223 221 220 221 221 217 213 209 208 207 207 205 202 200 198 198 199 202 205 204 201 199 196 195 195 195 195 195 194 194 194 194 195 195 194 193 194 194 195 197 198 198 200 202 204 206 205 206 211 215 219 226 235 244 249 251 252 254 249 245 244 244 250 264 273 279 284 288 291 298 298 294 296 300 304 311 311 307 309
212 211 210 213 218 221 221 219 218 218 218 215 212 210 207 205 204 202 200 198 199 201 203 205 206 204 200 198 197 195 194 195 196 195 194 194 194 194 194 194 194 193 194 195 197 199 200 200 202 205 206 207 206 208 213 217 220 229 237 244 251 254 252 251 253 252 252 254 259 268 276 282 285 286 288 292 291 292 298 302 309 317 313 308 309
210 210 210 211 213 216 219 220 219 218 217 216 213 210 208 207 206 204 203 203 204 207 209 208 206 204 201 199 198 198 197 195 196 196 196 196 196 196 195 193 192 193 195 197 199 200 200 201 205 208 210 209 208 213 219 220 220 229 235 238 245 253 254 251 255 260 263 265 269 277 285 289 288 285 286 285 283 286 289 292 303 311 306 302 304
209 209 210 212 212 214 218 220 220 220 220 220 217 211 208 208 208 207 208 210 211 212 212 210 206 203 202 200 199 200 199 197 196 197 197 197 197 197 196 194 193 195 197 199 200 200 201 203 206 209 211 211 212 218 223 222 223 231 235 233 238 249 253 250 255 266 273 276 282 288 291 291 288 286 287 285 279 276 276 283 294 298 294 295 300
208 209 210 211 213 217 220 220 221 222 223 223 221 217 214 212 212 212 212 213 214 214 213 210 206 202 200 199 199 201 201 198 197 198 198 198 199 199 199 198 198 198 200 200 200 200 201 203 207 209 209 211 216 222 224 222 225 233 234 233 238 243 244 248 258 271 280 285 291 295 295 295 292 289 289 289 285 280 273 274 281 283 285 289 292
204 207 209 210 214 218 220 222 223 224 224 223 222 221 221 221 221 219 216 214 212 211 208 206 203 200 199 198 199 201 204 202 199 199 200 200 201 203 204 205 204 203 202 201 202 202 202 204 206 207 208 212 220 224 223 221 225 233 236 236 238 239 241 252 266 273 279 287 294 296 298 296 291 286 284 281 278 272 265 267 275 277 276 279 284
198 201 204 207 212 216 219 222 223 223 224 223 222 222 223 224 224 220 216 211 207 204 202 200 199 198 198 199 199 202 206 207 205 203 203 203 204 207 208 210 210 207 204 203 203 204 206 207 208 208 209 215 223 225 222 220 224 232 236 234 233 237 245 258 268 269 274 282 287 289 289 286 279 274 272 269 266 265 266 267 271 271 270 275 278
198 199 201 204 209 214 218 220 221 221 221 221 220 220 220 220 217 213 209 205 200 198 198 197 197 197 199 201 202 205 208 211 210 208 206 205 206 208 210 211 212 211 208 207 206 207 209 210 210 210 212 219 224 223 218 219 224 229 230 230 232 238 248 255 256 259 266 271 275 278 276 270 267 266 268 269 266 263 264 268 273 277 280 283 282
199 198 199 203 207 211 214 216 217 217 217 217 215 214 213 212 209 207 205 202 198 196 197 197 197 198 201 203 205 207 209 211 212 211 209 207 208 209 210 212 213 214 214 213 213 213 215 215 215 214 216 221 224 219 215 219 225 226 227 230 234 238 241 245 247 250 256 262 266 269 265 259 259 261 263 266 266 266 272 283 290 290 290 290 287
190 190 194 198 203 205 207 209 213 213 214 214 212 210 209 205 202 202 202 201 199 198 197 198 199 200 202 204 206 208 209 210 212 214 213 211 210 211 211 213 214 215 215 216 217 219 220 221 220 218 219 222 219 212 212 218 221 224 227 230 234 236 236 238 240 243 251 257 258 257 257 257 260 262 261 262 268 277 287 293 292 292 294 298 297
177 180 186 191 196 200 200 201 205 208 210 212 212 212 211 205 200 200 200 200 201 201 200 201 202 204 206 208 209 209 209 210 213 216 216 215 213 213 214 214 215 216 217 218 220 221 221 222 221 220 220 219 214 210 216 220 221 225 230 230 231 233 234 234 237 241 246 248 248 251 255 259 262 263 263 266 274 282 284 283 288 296 301 303 304
169 172 178 183 188 193 195 197 200 202 205 207 209 212 212 208 204 203 202 201 202 203 204 205 205 207 210 211 212 212 213 213 214 216 218 217 215 214 215 215 215 216 217 218 219 220 219 218 219 220 218 215 213 215 220 222 221 224 227 228 229 232 234 235 238 242 244 244 245 251 255 258 262 264 264 265 269 272 271 274 287 299 303 304 305
163 163 167 175 180 184 191 196 198 200 203 205 207 211 214 212 211 212 212 209 207 207 208 209 211 212 213 212 212 213 214 216 217 218 219 218 216 215 215 215 215 215 216 217 217 216 216 214 213 215 214 212 215 219 220 220 221 224 226 226 228 230 233 235 236 239 241 241 243 249 253 257 261 260 255 254 258 263 264 268 280 291 299 304 304
151 153 160 168 173 179 189 194 196 202 209 209 210 216 220 219 219 222 224 222 218 216 216 217 218 219 218 216 215 214 215 221 224 224 221 218 217 216 216 215 215 216 218 219 216 212 211 210 209 211 212 212 217 221 221 219 219 221 223 226 228 230 231 233 233 234 235 236 238 242 247 250 250 245 242 247 252 253 256 263 273 282 288 293 293
141 146 155 161 170 179 189 196 200 209 218 217 217 225 231 229 227 228 230 231 228 225 226 227 226 226 226 226 225 223 224 228 230 229 225 222 220 220 219 218 217 216 218 219 215 211 210 210 210 212 214 215 219 223 223 221 219 220 221 223 227 229 230 231 231 230 231 234 236 237 236 236 236 231 230 240 247 248 248 256 265 271 276 280 283
134 138 147 156 169 179 189 203 209 215 225 227 227 233 242 244 241 237 236 238 236 233 232 234 234 233 233 235 236 235 234 235 237 237 233 229 225 224 223 222 220 219 219 217 214 213 212 211 212 215 217 219 222 224 225 224 222 222 221 221 224 227 228 229 230 229 229 231 231 230 229 229 229 226 225 233 242 244 245 250 254 258 263 267 272
124 130 139 145 157 173 190 207 214 219 229 235 236 239 247 256 258 253 248 244 243 241 239 238 239 239 240 240 240 241 240 240 241 243 243 238 232 228 226 225 224 223 221 218 218 218 216 213 216 219 220 223 226 226 226 226 225 224 222 221 223 226 227 228 230 229 229 228 226 224 223 224 225 225 226 232 238 241 243 244 243 250 259 264 268
115 114 117 118 122 140 170 193 209 224 234 238 241 243 245 249 262 270 267 258 252 250 247 245 244 243 244 244 244 245 246 246 245 246 247 246 241 234 229 227 226 222 217 217 221 222 220 220 222 224 224 226 229 229 228 228 228 226 225 224 224 226 227 228 229 229 227 226 225 223 222 221 221 223 226 229 233 240 244 242 241 247 255 261 268
108 105 103 102 101 100 100 118 227 248 252 252 252 251 251 251 254 267 278 278 271 265 260 256 253 250 248 249 249 249 250 250 250 250 250 249 248 243 235 229 226 223 221 222 224 225 225 226 227 228 228 230 232 232 231 230 229 227 225 224 224 226 227 227 226 226 224 224 223 223 222 222 220 219 221 223 224 233 240 241 242 245 247 255 269
105 102 98 95 95 93 83 46 306 277 268 266 262 256 254 258 261 262 265 270 273 277 278 275 270 263 258 255 254 254 254 253 253 254 252 249 248 243 230 221 219 219 221 225 227 229 230 231 231 231 232 234 235 234 232 231 229 227 226 225 223 223 226 226 224 222 222 222 222 221 221 223 221 218 219 220 222 229 236 237 239 244 248 256 268
96 92 87 84 87 86 76 302 276 267 259 257 257 254 251 254 257 258 259 260 261 263 267 271 273 273 270 263 259 257 255 254 253 252 251 249 244 231 217 213 216 218 220 224 227 229 231 233 234 235 236 236 238 237 234 231 230 228 227 226 224 223 224 224 222 221 220 220 221 221 220 223 224 221 219 220 224 230 237 239 242 247 251 255 263
86 85 83 83 88 90 241 264 261 260 258 253 254 256 258 258 259 257 253 252 255 258 259 259 262 265 266 264 262 259 256 254 253 250 247 244 238 227 219 218 221 222 223 226 227 229 232 234 236 238 239 239 239 238 234 231 230 229 228 227 226 225 225 224 222 222 221 219 220 222 222 222 223 223 221 220 221 225 231 237 242 247 251 255 262
77 77 81 81 74 30 295 293 287 279 276 274 271 271 269 266 264 260 253 251 255 259 262 262 260 259 260 262 265 264 260 254 248 241 235 228 223 222 222 224 225 226 228 230 230 231 233 235 236 238 240 241 240 238 235 232 231 229 228 226 225 224 223 222 221 221 220 219 221 223 224 223 223 223 224 224 222 222 226 232 238 244 249 252 257
62 57 57 34 350 326 304 300 303 306 307 302 296 291 283 275 268 260 260 263 265 265 267 267 264 263 265 264 263 260 253 241 232 228 225 222 220 221 223 225 227 229 231 233 233 233 234 235 236 238 240 241 241 239 235 233 231 229 227 224 222 220 220 220 219 219 220 221 222 223 224 224 223 223 224 224 223 223 226 231 235 240 246 250 252
42 33 26 18 3 336 315 310 312 311 306 300 296 294 290 287 282 274 272 275 274 273 273 271 270 271 271 266 260 254 246 240 236 233 230 227 225 225 226 228 230 233 234 235 236 236 237 238 238 240 241 243 243 241 236 232 230 229 226 223 221 220 220 220 220 220 221 221 221 222 224 224 223 222 223 225 223 221 223 230 234 237 243 250 256
28 19 11 6 3 357 353 346 332 317 304 299 298 297 295 292 289 285 282 281 279 279 278 274 273 275 275 269 265 261 255 251 249 245 241 238 236 234 233 234 236 238 239 240 240 240 241 242 243 243 245 245 245 243 238 233 230 228 226 223 222 221 220 220 220 221 221 221 220 221 223 224 223 222 221 221 221 220 222 226 230 233 239 247 255
25 17 11 6 4 4 3 354 341 333 330 326 318 309 301 296 292 289 285 282 280 280 280 278 278 279 277 272 268 264 260 257 255 253 251 249 248 246 245 244 244 245 245 245 244 244 245 247 247 248 249 250 250 246 240 234 231 228 226 223 222 220 219 220 220 221 220 220 219 221 222 221 221 221 221 219 220 223 224 224 223 225 233 241 248
22 16 11 5 1 1 357 350 344 340 336 330 322 313 306 301 299 295 290 285 283 280 279 281 283 283 281 277 272 266 262 260 258 257 256 255 254 254 253 252 251 251 251 250 249 247 247 249 251 253 255 257 257 253 246 240 234 230 226 224 222 221 220 220 220 219 218 218 218 219 219 219 219 220 222 222 222 224 226 226 224 224 228 236 244
14 8 4 358 355 353 349 345 342 337 329 323 320 318 315 312 308 302 294 288 285 283 281 282 284 284 282 281 276 268 264 262 261 260 260 259 259 259 259 257 255 254 254 254 252 250 249 250 252 255 258 260 260 256 250 244 238 233 229 226 223 222 221 221 220 219 218 217 216 217 218 219 220 221 222 223 223 224 226 226 225 224 225 230 240
1 356 353 349 346 343 340 337 334 329 326 323 321 319 317 312 307 303 297 292 289 287 285 285 286 286 284 282 278 272 268 267 266 265 264 264 263 263 263 263 261 259 257 257 255 253 252 252 253 255 258 259 259 257 252 244 237 233 231 229 227 227 226 225 224 222 219 217 218 218 218 219 222 223 223 223 223 225 226 226 224 226 229 230 234
349 346 343 339 335 332 330 327 324 322 321 319 316 313 310 307 303 299 296 294 292 291 290 290 289 287 285 284 281 278 275 273 271 270 269 269 268 267 267 267 265 263 261 260 259 257 256 257 257 257 257 257 257 257 253 245 237 232 230 230 230 231 230 228 225 222 220 219 219 218 218 219 222 224 224 224 224 225 227 227 226 230 234 234 238
342 339 336 331 328 325 322 320 319 317 315 313 311 308 306 303 300 296 293 291 291 290 291 291 289 287 285 284 282 281 280 277 276 275 275 274 273 271 270 269 267 266 265 264 262 260 260 260 259 258 258 257 256 255 252 245 236 230 229 229 229 228 226 224 221 220 219 220 220 219 219 220 221 223 224 225 225 227 229 230 231 234 236 238 244
339 337 333 329 326 323 320 318 316 313 311 309 306 301 298 297 296 292 290 290 290 290 289 288 286 285 285 285 284 283 283 281 279 278 277 276 276 275 273 271 269 268 267 267 264 262 261 261 260 259 258 256 254 253 251 245 235 229 227 227 226 224 223 221 218 217 218 219 219 219 220 222 222 223 224 225 227 229 230 231 234 236 238 243 249
337 335 331 327 323 320 316 313 309 306 304 302 298 295 295 295 292 288 288 289 288 287 286 286 285 286 286 286 287 287 285 283 282 281 279 278 277 277 276 274 272 270 269 269 268 266 264 263 261 260 259 257 254 253 250 243 235 229 226 225 224 222 221 220 218 217 218 219 220 220 221 223 224 224 224 226 228 230 231 232 236 238 242 248 252
333 331 327 322 319 316 312 307 304 301 299 298 296 294 293 292 288 286 286 287 287 286 285 286 287 288 288 287 288 288 286 283 282 282 281 280 280 279 278 277 274 272 272 274 273 270 267 265 263 261 259 257 254 251 247 240 233 228 227 226 224 222 220 219 219 218 219 221 222 222 222 224 224 224 225 226 228 231 232 234 238 241 245 250 252
329 327 323 318 315 312 308 306 303 300 298 297 296 292 290 290 288 287 287 287 287 287 288 288 288 288 288 287 287 287 286 284 283 283 283 282 281 281 280 278 276 275 278 280 278 274 269 266 264 262 260 257 254 249 244 237 231 228 227 226 223 221 220 220 220 220 221 223 223 223 223 223 224 224 225 225 227 231 234 236 239 243 246 249 250